カタログに戻る

STARLINK-3673

運用中通信VLEO
NORAD 52093·PAYLOAD·🇺🇸 United States

打ち上げ Mar 19, 2022 から Cape Canaveral Space Force Station

Loading…

次のパス (今後24時間)

TLE

最新Source: CelesTrak SupGP

元期: Sep 15, 2026, 02:04 UTC

1 52093C 22029F   26258.08659722  .00013941  00000+0  41178-3 0  2585
2 52093  53.1588 302.8185 0001338  92.0716  90.7188 15.34392368    16

AllMySatでSTARLINK-3673をリアルタイム追跡

Download on the App Store